"Time","Value","Approval","myLocation"
"2023-05-07 00:00",3.946749745158,"Approved","OW449"
"2023-05-07 01:00",3.94275229357798,"Approved","OW449"
"2023-05-07 02:00",3.93875484199796,"Approved","OW449"
"2023-05-07 03:00",3.93575739041794,"Approved","OW449"
"2023-05-07 04:00",3.93175993883792,"Approved","OW449"
"2023-05-07 05:00",3.9267624872579,"Approved","OW449"
"2023-05-07 06:00",3.92176503567788,"Approved","OW449"
"2023-05-07 07:00",3.91776758409786,"Approved","OW449"
"2023-05-07 08:00",3.91377013251784,"Approved","OW449"
"2023-05-07 09:00",3.90877268093782,"Approved","OW449"
"2023-05-07 10:00",3.9047752293578,"Approved","OW449"
"2023-05-07 11:00",3.89877777777778,"Approved","OW449"
"2023-05-07 12:00",3.89378032619776,"Approved","OW449"
"2023-05-07 13:00",3.88878287461774,"Approved","OW449"
"2023-05-07 14:00",3.88478542303772,"Approved","OW449"
"2023-05-07 15:00",3.8807879714577,"Approved","OW449"
"2023-05-07 16:00",3.87679051987768,"Approved","OW449"
"2023-05-07 17:00",3.87279306829766,"Approved","OW449"
"2023-05-07 18:00",3.86679561671764,"Approved","OW449"
"2023-05-07 19:00",3.86279816513761,"Approved","OW449"
"2023-05-07 20:00",3.85780071355759,"Approved","OW449"
"2023-05-07 21:00",3.85380326197757,"Approved","OW449"
"2023-05-07 22:00",3.84780581039755,"Approved","OW449"
"2023-05-07 23:00",3.84280835881753,"Approved","OW449"
"2023-05-08 00:00",3.83781090723751,"Approved","OW449"
"2023-05-08 01:00",3.83281345565749,"Approved","OW449"
"2023-05-08 02:00",3.82781600407747,"Approved","OW449"
"2023-05-08 03:00",3.82281855249745,"Approved","OW449"
"2023-05-08 04:00",3.81882110091743,"Approved","OW449"
"2023-05-08 05:00",3.81482364933741,"Approved","OW449"
"2023-05-08 06:00",3.80982619775739,"Approved","OW449"
"2023-05-08 07:00",3.80482874617737,"Approved","OW449"
"2023-05-08 08:00",3.79883129459735,"Approved","OW449"
"2023-05-08 09:00",3.79383384301733,"Approved","OW449"
"2023-05-08 10:00",3.78883639143731,"Approved","OW449"
"2023-05-08 11:00",3.78383893985729,"Approved","OW449"
"2023-05-08 12:00",3.77784148827727,"Approved","OW449"
"2023-05-08 13:00",3.77384403669725,"Approved","OW449"
"2023-05-08 14:00",3.76884658511723,"Approved","OW449"
"2023-05-08 15:00",3.76384913353721,"Approved","OW449"
"2023-05-08 16:00",3.75885168195719,"Approved","OW449"
"2023-05-08 17:00",3.75485423037717,"Approved","OW449"
"2023-05-08 18:00",3.74885677879715,"Approved","OW449"
"2023-05-08 19:00",3.74485932721713,"Approved","OW449"
"2023-05-08 20:00",3.73886187563711,"Approved","OW449"
"2023-05-08 21:00",3.73386442405708,"Approved","OW449"
"2023-05-08 22:00",3.73086697247706,"Approved","OW449"
"2023-05-08 23:00",3.72486952089704,"Approved","OW449"
"2023-05-09 00:00",3.71987206931702,"Approved","OW449"
"2023-05-09 01:00",3.713874617737,"Approved","OW449"
"2023-05-09 02:00",3.70887716615698,"Approved","OW449"
"2023-05-09 03:00",3.70387971457696,"Approved","OW449"
"2023-05-09 04:00",3.69788226299694,"Approved","OW449"
"2023-05-09 05:00",3.69288481141692,"Approved","OW449"
"2023-05-09 06:00",3.6878873598369,"Approved","OW449"
"2023-05-09 07:00",3.68188990825688,"Approved","OW449"
"2023-05-09 08:00",3.67689245667686,"Approved","OW449"
"2023-05-09 09:00",3.67089500509684,"Approved","OW449"
"2023-05-09 10:00",3.66689755351682,"Approved","OW449"
"2023-05-09 11:00",3.6619001019368,"Approved","OW449"
"2023-05-09 12:00",3.65690265035678,"Approved","OW449"
"2023-05-09 13:00",3.65190519877676,"Approved","OW449"
"2023-05-09 14:00",3.64590774719674,"Approved","OW449"
"2023-05-09 15:00",3.64091029561672,"Approved","OW449"
"2023-05-09 16:00",3.6339128440367,"Approved","OW449"
"2023-05-09 17:00",3.62891539245668,"Approved","OW449"
"2023-05-09 18:00",3.62291794087666,"Approved","OW449"
"2023-05-09 19:00",3.61792048929664,"Approved","OW449"
"2023-05-09 20:00",3.61192303771662,"Approved","OW449"
"2023-05-09 21:00",3.6059255861366,"Approved","OW449"
"2023-05-09 22:00",3.59992813455657,"Approved","OW449"
"2023-05-09 23:00",3.59393068297655,"Approved","OW449"
"2023-05-10 00:00",3.58893323139653,"Approved","OW449"
"2023-05-10 01:00",3.58293577981651,"Approved","OW449"
"2023-05-10 02:00",3.57793832823649,"Approved","OW449"
"2023-05-10 03:00",3.57394087665647,"Approved","OW449"
"2023-05-10 04:00",3.56794342507645,"Approved","OW449"
"2023-05-10 05:00",3.56394597349643,"Approved","OW449"
"2023-05-10 06:00",3.55894852191641,"Approved","OW449"
"2023-05-10 07:00",3.55395107033639,"Approved","OW449"
"2023-05-10 08:00",3.54895361875637,"Approved","OW449"
"2023-05-10 09:00",3.54295616717635,"Approved","OW449"
"2023-05-10 10:00",3.53795871559633,"Approved","OW449"
"2023-05-10 11:00",3.53296126401631,"Approved","OW449"
"2023-05-10 12:00",3.52796381243629,"Approved","OW449"
"2023-05-10 13:00",3.52296636085627,"Approved","OW449"
"2023-05-10 14:00",3.51596890927625,"Approved","OW449"
"2023-05-10 15:00",3.51197145769623,"Approved","OW449"
"2023-05-10 16:00",3.50597400611621,"Approved","OW449"
"2023-05-10 17:00",3.50097655453619,"Approved","OW449"
"2023-05-10 18:00",3.49597910295617,"Approved","OW449"
"2023-05-10 19:00",3.48998165137615,"Approved","OW449"
"2023-05-10 20:00",3.48598419979613,"Approved","OW449"
"2023-05-10 21:00",3.48098674821611,"Approved","OW449"
"2023-05-10 22:00",3.47598929663609,"Approved","OW449"
"2023-05-10 23:00",3.47099184505607,"Approved","OW449"
"2023-05-11 00:00",3.46599439347604,"Approved","OW449"
"2023-05-11 01:00",3.46199694189602,"Approved","OW449"
"2023-05-11 02:00",3.456999490316,"Approved","OW449"
"2023-05-11 03:00",3.45300203873598,"Approved","OW449"
"2023-05-11 04:00",3.45000458715596,"Approved","OW449"
"2023-05-11 05:00",3.44600713557594,"Approved","OW449"
"2023-05-11 06:00",3.44200968399592,"Approved","OW449"
"2023-05-11 07:00",3.4390122324159,"Approved","OW449"
"2023-05-11 08:00",3.43301478083588,"Approved","OW449"
"2023-05-11 09:00",3.42901732925586,"Approved","OW449"
"2023-05-11 10:00",3.42601987767584,"Approved","OW449"
"2023-05-11 11:00",3.42102242609582,"Approved","OW449"
"2023-05-11 12:00",3.4170249745158,"Approved","OW449"
"2023-05-11 13:00",3.41502752293578,"Approved","OW449"
"2023-05-11 14:00",3.41103007135576,"Approved","OW449"
"2023-05-11 15:00",3.40803261977574,"Approved","OW449"
"2023-05-11 16:00",3.40403516819572,"Approved","OW449"
"2023-05-11 17:00",3.4000377166157,"Approved","OW449"
"2023-05-11 18:00",3.39604026503568,"Approved","OW449"
"2023-05-11 19:00",3.39204281345566,"Approved","OW449"
"2023-05-11 20:00",3.38804536187564,"Approved","OW449"
"2023-05-11 21:00",3.38404791029562,"Approved","OW449"
"2023-05-11 22:00",3.3810504587156,"Approved","OW449"
"2023-05-11 23:00",3.37705300713558,"Approved","OW449"
"2023-05-12 00:00",3.37205555555556,"Approved","OW449"
"2023-05-12 01:00",3.36905810397554,"Approved","OW449"
"2023-05-12 02:00",3.36606065239551,"Approved","OW449"
"2023-05-12 03:00",3.36206320081549,"Approved","OW449"
"2023-05-12 04:00",3.36006574923547,"Approved","OW449"
"2023-05-12 05:00",3.35806829765545,"Approved","OW449"
"2023-05-12 06:00",3.35507084607543,"Approved","OW449"
"2023-05-12 07:00",3.35207339449541,"Approved","OW449"
"2023-05-12 08:00",3.34907594291539,"Approved","OW449"
"2023-05-12 09:00",3.34607849133537,"Approved","OW449"
"2023-05-12 10:00",3.34408103975535,"Approved","OW449"
"2023-05-12 11:00",3.34008358817533,"Approved","OW449"
"2023-05-12 12:00",3.33708613659531,"Approved","OW449"
"2023-05-12 13:00",3.33508868501529,"Approved","OW449"
"2023-05-12 14:00",3.33309123343527,"Approved","OW449"
"2023-05-12 15:00",3.33009378185525,"Approved","OW449"
"2023-05-12 16:00",3.32709633027523,"Approved","OW449"
"2023-05-12 17:00",3.32409887869521,"Approved","OW449"
"2023-05-12 18:00",3.32110142711519,"Approved","OW449"
"2023-05-12 19:00",3.31810397553517,"Approved","OW449"
"2023-05-12 20:00",3.31510652395515,"Approved","OW449"
"2023-05-12 21:00",3.31210907237513,"Approved","OW449"
"2023-05-12 22:00",3.31211162079511,"Approved","OW449"
"2023-05-12 23:00",3.31011416921509,"Approved","OW449"
"2023-05-13 00:00",3.30811671763507,"Approved","OW449"
"2023-05-13 01:00",3.30611926605505,"Approved","OW449"
"2023-05-13 02:00",3.30412181447503,"Approved","OW449"
"2023-05-13 03:00",3.302124362895,"Approved","OW449"
"2023-05-13 04:00",3.30112691131498,"Approved","OW449"
"2023-05-13 05:00",3.30012945973496,"Approved","OW449"
"2023-05-13 06:00",3.29813200815494,"Approved","OW449"
"2023-05-13 07:00",3.29613455657492,"Approved","OW449"
"2023-05-13 08:00",3.2931371049949,"Approved","OW449"
"2023-05-13 09:00",3.29213965341488,"Approved","OW449"
"2023-05-13 10:00",3.28914220183486,"Approved","OW449"
"2023-05-13 11:00",3.28614475025484,"Approved","OW449"
"2023-05-13 12:00",3.28414729867482,"Approved","OW449"
"2023-05-13 13:00",3.2821498470948,"Approved","OW449"
"2023-05-13 14:00",3.28015239551478,"Approved","OW449"
"2023-05-13 15:00",3.27815494393476,"Approved","OW449"
"2023-05-13 16:00",3.27715749235474,"Approved","OW449"
"2023-05-13 17:00",3.27416004077472,"Approved","OW449"
"2023-05-13 18:00",3.2721625891947,"Approved","OW449"
"2023-05-13 19:00",3.26916513761468,"Approved","OW449"
"2023-05-13 20:00",3.26716768603466,"Approved","OW449"
"2023-05-13 21:00",3.26417023445464,"Approved","OW449"
"2023-05-13 22:00",3.26217278287462,"Approved","OW449"
"2023-05-13 23:00",3.2601753312946,"Approved","OW449"
"2023-05-14 00:00",3.25817787971458,"Approved","OW449"
"2023-05-14 01:00",3.25718042813456,"Approved","OW449"
"2023-05-14 02:00",3.25618297655454,"Approved","OW449"
"2023-05-14 03:00",3.25418552497452,"Approved","OW449"
"2023-05-14 04:00",3.2541880733945,"Approved","OW449"
"2023-05-14 05:00",3.25419062181448,"Approved","OW449"
"2023-05-14 06:00",3.25219317023445,"Approved","OW449"
"2023-05-14 07:00",3.25019571865443,"Approved","OW449"
"2023-05-14 08:00",3.24819826707441,"Approved","OW449"
"2023-05-14 09:00",3.24620081549439,"Approved","OW449"
"2023-05-14 10:00",3.24320336391437,"Approved","OW449"
"2023-05-14 11:00",3.24220591233435,"Approved","OW449"
"2023-05-14 12:00",3.23920846075433,"Approved","OW449"
"2023-05-14 13:00",3.23721100917431,"Approved","OW449"
"2023-05-14 14:00",3.23621355759429,"Approved","OW449"
"2023-05-14 15:00",3.23421610601427,"Approved","OW449"
"2023-05-14 16:00",3.23121865443425,"Approved","OW449"
"2023-05-14 17:00",3.22822120285423,"Approved","OW449"
"2023-05-14 18:00",3.22722375127421,"Approved","OW449"
"2023-05-14 19:00",3.22422629969419,"Approved","OW449"
"2023-05-14 20:00",3.22122884811417,"Approved","OW449"
"2023-05-14 21:00",3.21923139653415,"Approved","OW449"
"2023-05-14 22:00",3.21823394495413,"Approved","OW449"
"2023-05-14 23:00",3.21723649337411,"Approved","OW449"
"2023-05-15 00:00",3.21623904179409,"Approved","OW449"
"2023-05-15 01:00",3.21324159021407,"Approved","OW449"
"2023-05-15 02:00",3.21424413863405,"Approved","OW449"
"2023-05-15 03:00",3.21624668705403,"Approved","OW449"
"2023-05-15 04:00",3.21524923547401,"Approved","OW449"
"2023-05-15 05:00",3.21425178389399,"Approved","OW449"
"2023-05-15 06:00",3.21125433231397,"Approved","OW449"
"2023-05-15 07:00",3.20925688073394,"Approved","OW449"
"2023-05-15 08:00",3.20825942915392,"Approved","OW449"
"2023-05-15 09:00",3.2052619775739,"Approved","OW449"
"2023-05-15 10:00",3.20326452599388,"Approved","OW449"
"2023-05-15 11:00",3.20126707441386,"Approved","OW449"
"2023-05-15 12:00",3.19926962283384,"Approved","OW449"
"2023-05-15 13:00",3.19827217125382,"Approved","OW449"
"2023-05-15 14:00",3.1972747196738,"Approved","OW449"
"2023-05-15 15:00",3.19427726809378,"Approved","OW449"
"2023-05-15 16:00",3.19227981651376,"Approved","OW449"
"2023-05-15 17:00",3.19028236493374,"Approved","OW449"
"2023-05-15 18:00",3.18828491335372,"Approved","OW449"
"2023-05-15 19:00",3.1862874617737,"Approved","OW449"
"2023-05-15 20:00",3.18429001019368,"Approved","OW449"
"2023-05-15 21:00",3.18329255861366,"Approved","OW449"
"2023-05-15 22:00",3.18129510703364,"Approved","OW449"
"2023-05-15 23:00",3.17929765545362,"Approved","OW449"
"2023-05-16 00:00",3.1793002038736,"Approved","OW449"
"2023-05-16 01:00",3.17730275229358,"Approved","OW449"
"2023-05-16 02:00",3.17730530071356,"Approved","OW449"
"2023-05-16 03:00",3.17830784913354,"Approved","OW449"
"2023-05-16 04:00",3.17831039755352,"Approved","OW449"
"2023-05-16 05:00",3.1743129459735,"Approved","OW449"
"2023-05-16 06:00",3.17431549439348,"Approved","OW449"
"2023-05-16 07:00",3.17231804281346,"Approved","OW449"
"2023-05-16 08:00",3.17332059123344,"Approved","OW449"
"2023-05-16 09:00",3.17132313965341,"Approved","OW449"
"2023-05-16 10:00",3.17032568807339,"Approved","OW449"
"2023-05-16 11:00",3.16732823649337,"Approved","OW449"
"2023-05-16 12:00",3.16633078491335,"Approved","OW449"
"2023-05-16 13:00",3.16433333333333,"Approved","OW449"
"2023-05-16 14:00",3.16033588175331,"Approved","OW449"
"2023-05-16 15:00",3.16033843017329,"Approved","OW449"
"2023-05-16 16:00",3.15834097859327,"Approved","OW449"
"2023-05-16 17:00",3.15534352701325,"Approved","OW449"
"2023-05-16 18:00",3.15434607543323,"Approved","OW449"
"2023-05-16 19:00",3.15134862385321,"Approved","OW449"
"2023-05-16 20:00",3.14835117227319,"Approved","OW449"
"2023-05-16 21:00",3.14435372069317,"Approved","OW449"
"2023-05-16 22:00",3.14235626911315,"Approved","OW449"
"2023-05-16 23:00",3.14035881753313,"Approved","OW449"
"2023-05-17 00:00",3.13836136595311,"Approved","OW449"
"2023-05-17 01:00",3.13736391437309,"Approved","OW449"
"2023-05-17 02:00",3.13736646279307,"Approved","OW449"
"2023-05-17 03:00",3.13636901121305,"Approved","OW449"
"2023-05-17 04:00",3.13437155963303,"Approved","OW449"
"2023-05-17 05:00",3.13337410805301,"Approved","OW449"
"2023-05-17 06:00",3.13037665647299,"Approved","OW449"
"2023-05-17 07:00",3.12837920489297,"Approved","OW449"
"2023-05-17 08:00",3.12538175331295,"Approved","OW449"
"2023-05-17 09:00",3.12338430173293,"Approved","OW449"
"2023-05-17 10:00",3.12038685015291,"Approved","OW449"
"2023-05-17 11:00",3.11838939857288,"Approved","OW449"
"2023-05-17 12:00",3.11639194699286,"Approved","OW449"
"2023-05-17 13:00",3.11439449541284,"Approved","OW449"
"2023-05-17 14:00",3.11139704383282,"Approved","OW449"
"2023-05-17 15:00",3.1083995922528,"Approved","OW449"
"2023-05-17 16:00",3.10540214067278,"Approved","OW449"
"2023-05-17 17:00",3.10240468909276,"Approved","OW449"
"2023-05-17 18:00",3.09940723751274,"Approved","OW449"
"2023-05-17 19:00",3.09740978593272,"Approved","OW449"
"2023-05-17 20:00",3.0944123343527,"Approved","OW449"
"2023-05-17 21:00",3.09141488277268,"Approved","OW449"
"2023-05-17 22:00",3.08741743119266,"Approved","OW449"
"2023-05-17 23:00",3.08441997961264,"Approved","OW449"
"2023-05-18 00:00",3.08242252803262,"Approved","OW449"
"2023-05-18 01:00",3.0804250764526,"Approved","OW449"
"2023-05-18 02:00",3.07842762487258,"Approved","OW449"
"2023-05-18 03:00",3.07743017329256,"Approved","OW449"
"2023-05-18 04:00",3.07643272171254,"Approved","OW449"
"2023-05-18 05:00",3.07643527013252,"Approved","OW449"
"2023-05-18 06:00",3.0744378185525,"Approved","OW449"
"2023-05-18 07:00",3.07144036697248,"Approved","OW449"
"2023-05-18 08:00",3.06944291539246,"Approved","OW449"
"2023-05-18 09:00",3.06644546381244,"Approved","OW449"
"2023-05-18 10:00",3.06344801223242,"Approved","OW449"
"2023-05-18 11:00",3.0604505606524,"Approved","OW449"
"2023-05-18 12:00",3.05845310907238,"Approved","OW449"
"2023-05-18 13:00",3.05745565749235,"Approved","OW449"
"2023-05-18 14:00",3.05345820591233,"Approved","OW449"
"2023-05-18 15:00",3.05146075433231,"Approved","OW449"
"2023-05-18 16:00",3.05146330275229,"Approved","OW449"
"2023-05-18 17:00",3.04946585117227,"Approved","OW449"
"2023-05-18 18:00",3.04646839959225,"Approved","OW449"
"2023-05-18 19:00",3.04547094801223,"Approved","OW449"
"2023-05-18 20:00",3.04347349643221,"Approved","OW449"
"2023-05-18 21:00",3.04147604485219,"Approved","OW449"
"2023-05-18 22:00",3.03847859327217,"Approved","OW449"
"2023-05-18 23:00",3.03648114169215,"Approved","OW449"
"2023-05-19 00:00",3.03548369011213,"Approved","OW449"
"2023-05-19 01:00",3.03348623853211,"Approved","OW449"
"2023-05-19 02:00",3.03148878695209,"Approved","OW449"
"2023-05-19 03:00",3.03149133537207,"Approved","OW449"
"2023-05-19 04:00",3.02949388379205,"Approved","OW449"
"2023-05-19 05:00",3.02949643221203,"Approved","OW449"
"2023-05-19 06:00",3.02649898063201,"Approved","OW449"
"2023-05-19 07:00",3.02450152905199,"Approved","OW449"
"2023-05-19 08:00",3.02150407747197,"Approved","OW449"
"2023-05-19 09:00",3.01850662589195,"Approved","OW449"
"2023-05-19 10:00",3.01550917431193,"Approved","OW449"
"2023-05-19 11:00",3.01451172273191,"Approved","OW449"
"2023-05-19 12:00",3.01251427115189,"Approved","OW449"
"2023-05-19 13:00",3.00951681957187,"Approved","OW449"
"2023-05-19 14:00",3.00751936799184,"Approved","OW449"
"2023-05-19 15:00",3.00452191641183,"Approved","OW449"
"2023-05-19 16:00",3.0015244648318,"Approved","OW449"
"2023-05-19 17:00",2.99852701325178,"Approved","OW449"
"2023-05-19 18:00",2.99552956167176,"Approved","OW449"
"2023-05-19 19:00",2.99053211009174,"Approved","OW449"
"2023-05-19 20:00",2.98853465851172,"Approved","OW449"
"2023-05-19 21:00",2.9865372069317,"Approved","OW449"
"2023-05-19 22:00",2.98353975535168,"Approved","OW449"
"2023-05-19 23:00",2.97854230377166,"Approved","OW449"
"2023-05-20 00:00",2.97754485219164,"Approved","OW449"
"2023-05-20 01:00",2.97554740061162,"Approved","OW449"
"2023-05-20 02:00",2.9725499490316,"Approved","OW449"
"2023-05-20 03:00",2.97155249745158,"Approved","OW449"
"2023-05-20 04:00",2.97155504587156,"Approved","OW449"
"2023-05-20 05:00",2.97055759429154,"Approved","OW449"
"2023-05-20 06:00",2.96756014271152,"Approved","OW449"
"2023-05-20 07:00",2.9665626911315,"Approved","OW449"
"2023-05-20 08:00",2.96356523955148,"Approved","OW449"
"2023-05-20 09:00",2.96056778797146,"Approved","OW449"
"2023-05-20 10:00",2.95857033639144,"Approved","OW449"
"2023-05-20 11:00",2.95557288481142,"Approved","OW449"
"2023-05-20 12:00",2.9535754332314,"Approved","OW449"
"2023-05-20 13:00",2.95157798165138,"Approved","OW449"
"2023-05-20 14:00",2.95058053007136,"Approved","OW449"
"2023-05-20 15:00",2.94758307849134,"Approved","OW449"
"2023-05-20 16:00",2.94458562691132,"Approved","OW449"
"2023-05-20 17:00",2.94158817533129,"Approved","OW449"
"2023-05-20 18:00",2.93659072375127,"Approved","OW449"
"2023-05-20 19:00",2.93359327217125,"Approved","OW449"
"2023-05-20 20:00",2.93159582059123,"Approved","OW449"
"2023-05-20 21:00",2.92759836901121,"Approved","OW449"
"2023-05-20 22:00",2.92460091743119,"Approved","OW449"
"2023-05-20 23:00",2.92160346585117,"Approved","OW449"
"2023-05-21 00:00",2.92060601427115,"Approved","OW449"
"2023-05-21 01:00",2.91860856269113,"Approved","OW449"
"2023-05-21 02:00",2.91661111111111,"Approved","OW449"
"2023-05-21 03:00",2.91661365953109,"Approved","OW449"
"2023-05-21 04:00",2.91661620795107,"Approved","OW449"
"2023-05-21 05:00",2.91661875637105,"Approved","OW449"
"2023-05-21 06:00",2.91562130479103,"Approved","OW449"
"2023-05-21 07:00",2.91362385321101,"Approved","OW449"
"2023-05-21 08:00",2.91162640163099,"Approved","OW449"
"2023-05-21 09:00",2.91062895005097,"Approved","OW449"
"2023-05-21 10:00",2.90963149847095,"Approved","OW449"
"2023-05-21 11:00",2.90763404689093,"Approved","OW449"
"2023-05-21 12:00",2.90563659531091,"Approved","OW449"
"2023-05-21 13:00",2.90463914373089,"Approved","OW449"
"2023-05-21 14:00",2.90264169215087,"Approved","OW449"
"2023-05-21 15:00",2.90064424057085,"Approved","OW449"
"2023-05-21 16:00",2.90064678899083,"Approved","OW449"
"2023-05-21 17:00",2.89764933741081,"Approved","OW449"
"2023-05-21 18:00",2.89565188583078,"Approved","OW449"
"2023-05-21 19:00",2.89365443425076,"Approved","OW449"
"2023-05-21 20:00",2.89265698267074,"Approved","OW449"
"2023-05-21 21:00",2.88965953109072,"Approved","OW449"
"2023-05-21 22:00",2.8866620795107,"Approved","OW449"
"2023-05-21 23:00",2.88266462793068,"Approved","OW449"
"2023-05-22 00:00",2.88066717635066,"Approved","OW449"
"2023-05-22 01:00",2.87866972477064,"Approved","OW449"
"2023-05-22 02:00",2.87867227319062,"Approved","OW449"
"2023-05-22 03:00",2.8776748216106,"Approved","OW449"
"2023-05-22 04:00",2.87667737003058,"Approved","OW449"
"2023-05-22 05:00",2.87567991845056,"Approved","OW449"
"2023-05-22 06:00",2.87568246687054,"Approved","OW449"
"2023-05-22 07:00",2.87468501529052,"Approved","OW449"
"2023-05-22 08:00",2.8736875637105,"Approved","OW449"
"2023-05-22 09:00",2.87169011213048,"Approved","OW449"
"2023-05-22 10:00",2.87069266055046,"Approved","OW449"
"2023-05-22 11:00",2.86969520897044,"Approved","OW449"
"2023-05-22 12:00",2.86769775739042,"Approved","OW449"
"2023-05-22 13:00",2.8667003058104,"Approved","OW449"
"2023-05-22 14:00",2.86570285423038,"Approved","OW449"
"2023-05-22 15:00",2.86370540265036,"Approved","OW449"
"2023-05-22 16:00",2.86070795107034,"Approved","OW449"
"2023-05-22 17:00",2.85671049949032,"Approved","OW449"
"2023-05-22 18:00",2.8537130479103,"Approved","OW449"
"2023-05-22 19:00",2.84971559633028,"Approved","OW449"
"2023-05-22 20:00",2.84571814475025,"Approved","OW449"
"2023-05-22 21:00",2.84172069317023,"Approved","OW449"
"2023-05-22 22:00",2.83872324159021,"Approved","OW449"
"2023-05-22 23:00",2.83672579001019,"Approved","OW449"
"2023-05-23 00:00",2.83372833843017,"Approved","OW449"
"2023-05-23 01:00",2.83373088685015,"Approved","OW449"
"2023-05-23 02:00",2.83173343527013,"Approved","OW449"
"2023-05-23 03:00",2.83073598369011,"Approved","OW449"
"2023-05-23 04:00",2.82973853211009,"Approved","OW449"
"2023-05-23 05:00",2.82974108053007,"Approved","OW449"
"2023-05-23 06:00",2.82874362895005,"Approved","OW449"
"2023-05-23 07:00",2.82774617737003,"Approved","OW449"
"2023-05-23 08:00",2.82874872579001,"Approved","OW449"
"2023-05-23 09:00",2.82575127420999,"Approved","OW449"
"2023-05-23 10:00",2.82375382262997,"Approved","OW449"
"2023-05-23 11:00",2.82375637104995,"Approved","OW449"
"2023-05-23 12:00",2.82275891946993,"Approved","OW449"
"2023-05-23 13:00",2.82176146788991,"Approved","OW449"
"2023-05-23 14:00",2.82176401630989,"Approved","OW449"
"2023-05-23 15:00",2.82076656472987,"Approved","OW449"
"2023-05-23 16:00",2.82176911314985,"Approved","OW449"
"2023-05-23 17:00",2.82077166156983,"Approved","OW449"
"2023-05-23 18:00",2.81977420998981,"Approved","OW449"
"2023-05-23 19:00",2.81877675840979,"Approved","OW449"
"2023-05-23 20:00",2.81877930682977,"Approved","OW449"
"2023-05-23 21:00",2.81678185524975,"Approved","OW449"
"2023-05-23 22:00",2.81578440366973,"Approved","OW449"
"2023-05-23 23:00",2.8147869520897,"Approved","OW449"
"2023-05-24 00:00",2.81278950050968,"Approved","OW449"
"2023-05-24 01:00",2.81279204892966,"Approved","OW449"
"2023-05-24 02:00",2.81179459734964,"Approved","OW449"
"2023-05-24 03:00",2.81079714576962,"Approved","OW449"
"2023-05-24 04:00",2.8107996941896,"Approved","OW449"
"2023-05-24 05:00",2.80980224260958,"Approved","OW449"
"2023-05-24 06:00",2.80780479102956,"Approved","OW449"
"2023-05-24 07:00",2.80680733944954,"Approved","OW449"
"2023-05-24 08:00",2.80680988786952,"Approved","OW449"
"2023-05-24 09:00",2.8058124362895,"Approved","OW449"
"2023-05-24 10:00",2.80381498470948,"Approved","OW449"
"2023-05-24 11:00",2.80381753312946,"Approved","OW449"
"2023-05-24 12:00",2.80182008154944,"Approved","OW449"
"2023-05-24 13:00",2.80282262996942,"Approved","OW449"
"2023-05-24 14:00",2.8028251783894,"Approved","OW449"
"2023-05-24 15:00",2.80182772680938,"Approved","OW449"
"2023-05-24 16:00",2.79983027522936,"Approved","OW449"
"2023-05-24 17:00",2.79883282364934,"Approved","OW449"
"2023-05-24 18:00",2.79883537206932,"Approved","OW449"
"2023-05-24 19:00",2.7958379204893,"Approved","OW449"